SCP
0 0 0 0 0 0 0 0 0 0 0 0 0 0 0 0 0 0 0 0 0 0 0 0 0 0 0 0 0 0 0 0 0 0 0 0 0 0 0 0 0 0 0
0 0 0 0 0 0 0 0 0 0 0 0 0 0 0 0 0 0 0 0 0 0 0 0 0 0 0 0 0 0 0 0 0 0 0 0 0 0 0 0 0 0 0
0 0 0 0 0 0 0 0 0 0 0 0 0 0 0 0 0 0 0 0 0 0 0 0 0 0 0 0 0 0 0 0 0 0 0 0 0 0 0 0 0 0 0
0 0 0 0 0 0 0 0 0 0 0 0 0 0 0 0 0 0 0 0 0 0 0 0 0 0 0 0 0 0 0 0 0 0 0 0 0 0 0 0 0 0 0
0 0 0 0 0 0 0 0 0 0 0 0 0 0 0 0 0 0 0 0 0 0 0 0 0 0 0 0 0 0 0 0 0 0 0 0 0 0 0 0 0 0 0
0 0 0 0 0 0 0 0 0 0 0 0 0 0 0 0 0 0 0 0 0 0 0 0 0 0 0 0 0 0 0 0 0 0 0 0 0 0 0 0 0 0 0
0 0 0 0 0 0 0 0 0 0 0 0 0 0 0 0 0 0 0 0 0 0 0 0 0 0 0 0 0 0 0 0 0 0 0 0 0 0 0 0 0 0 0
0 0 0 0 0 0 0 0 0 0 0 0 0 0 0 0 0 0 0 0 0 0 0 0 0 0 0 0 0 0 0 0 0 0 0 0 0 0 0 0 0 0 0
0 0 0 0 0 0 -0 0 0 0 0 0 0 0 0 0 0 0 0 0 0 0 0 0 0 0 0 0 0 0 0 0 0 0 0 0 0 0 0 0 0 0 0
0 0 0 0 -0 -0 -0 -0 -0 0 0 0 0 0 0 0 0 0 0 0 0 0 0 0 0 0 0 0 0 0 0 0 0 0 0 0 0 0 0 0 0 0 0
0 0 0 0 0 0 0 -0 -0 0 0 0 0 0 0 0 0 0 0 0 0 0 0 0 0 0 0 0 0 0 0 0 0 0 0 0 0 0 0 0 0 0 0
-0 -0 -0 -0 -0 -0 -0 0 0 0 0 0 0 0 0 0 0 0 0 0 0 0 0 0 0 0 0 0 0 0 0 0 0 0 0 0 0 0 0 0 0 0 0
-0 -0 0 0 0 0 -0 0 0 0 0 0 0 0 0 0 0 0 0 0 0 0 0 0 0 0 0 0 0 0 0 0 0 0 0 0 0 0 0 0 0 0 0
0 0 0 0 0 0 0 0 0 0 0 0 0 0 0 0 0 0 0 0 0 0 0 0 0 0 0 0 0 0 0 0 0 0 0 0 0 0 0 0 0 0 0
0 0 0 0 0 0 0 0 0 0 0 0 0 0 0 0 0 0 0 0 0 0 0 0 0 0 0 0 0 0 0 0 0 0 0 0 0 0 0 0 0 0 0
0 0 0 0 0 0 0 0 0 0 0 0 0 0 0 0 0 0 0 0 0 0 0 0 0 0 0 0 0 0 0 0 0 0 0 0 0 0 0 0 0 0 0
0 0 0 0 0 0 0 0 0 0 0 0 0 0 0 0 0 0 0 0 0 0 0 0 0 0 0 0 0 0 0 0 0 0 0 0 0 0 0 0 0 0 0
0 0 0 0 -0 -0 -0 0 0 0 0 0 0 0 0 0 0 0 0 0 0 0 0 0 0 0 0 0 0 0 0 0 0 0 0 0 0 0 0 0 0 0 0
0 0 0 0 0 0 0 0 0 0 0 0 0 0 0 0 0 0 0 0 0 0 0 0 0 0 0 0 0 0 0 0 0 0 0 0 0 0 0 0 0 0 0
0 0 0 0 0 0 0 0 0 0 0 0 0 0 0 0 0 0 0 0 0 0 0 0 0 0 0 0 0 0 0 0 0 0 0 0 0 0 0 0 0 0 0
0 0 0 0 0 0 0 0 0 0 0 0 0 0 0 0 0 0 0 0 0 0 0 0 0 0 0 0 0 0 0 0 0 0 0 0 0 0 0 0 0 0 0
-0 -0 0 0 0 0 0 0 0 0 0 0 0 0 0 0 0 0 0 0 0 0 0 0 0 0 0 0 0 0 0 0 0 0 0 0 0 0 0 0 0 0 0
-0 -0 0 0 0 0 0 0 0 0 0 0 0 0 0 0 0 0 0 0 0 0 0 0 0 0 0 0 0 0 0 0 0 0 0 0 0 0 0 0 0 0 0
-0 -0 0 0 0 0 0 0 0 0 0 0 0 0 0 0 0 0 0 0 0 0 0 0 0 0 0 0 0 0 0 0 0 0 0 0 0 0 0 0 0 0 0
0 0 0 0 0 0 0 0 0 0 0 0 0 0 0 0 0 0 0 0 0 0 0 0 0 0 0 0 0 0 0 0 0 0 0 0 0 0 0 0 0 0 0
0 0 0 0 0 0 0 0 0 0 0 0 0 0 0 0 0 0 0 0 0 0 0 0 0 0 0 0 0 0 0 0 0 0 0 0 0 0 0 -0 -0 0 0
Wind_Speed_500mb
57 51 49 53 59 62 64 66 73 75 80 85 85 84 86 85 84 81 79 76 73 72 70 74 75 74 73 71 68 66 64 62 62 55 52 52 52 55 59 62 64 64 61
62 57 54 53 55 61 68 70 70 74 81 86 88 91 86 90 88 87 86 83 79 79 74 76 76 81 76 80 83 77 74 76 73 69 56 40 57 66 66 70 71 69 67
37 33 44 51 56 62 63 72 74 73 73 82 89 94 97 96 92 92 91 87 84 81 79 75 78 81 84 81 88 90 88 89 82 81 62 27 35 54 72 78 78 78 77
27 29 25 29 38 50 55 65 77 80 76 77 86 91 94 98 95 93 94 94 88 85 85 82 83 84 83 86 85 97 94 98 96 90 92 83 57 39 40 72 81 84 81
24 17 15 18 19 29 37 46 67 82 83 81 81 84 90 94 94 91 91 92 95 96 96 93 92 89 88 91 92 89 106 99 111 99 95 100 80 71 62 55 70 85 92
16 16 18 21 18 19 26 37 45 69 82 82 81 82 81 86 89 90 88 89 88 92 97 97 96 96 95 97 98 101 99 114 107 114 115 91 101 99 95 85 72 77 86
34 34 34 27 22 21 24 26 33 45 58 68 75 77 77 80 83 84 84 85 84 86 87 90 99 104 105 101 102 104 110 100 122 115 120 99 113 106 99 101 82 68 86
43 45 46 45 37 28 24 21 27 33 41 50 58 64 70 73 75 76 76 77 78 77 77 78 80 85 93 101 104 104 109 109 114 110 121 110 117 93 117 107 102 78 64
36 38 42 44 55 56 55 57 41 32 35 39 46 54 57 60 63 63 63 66 69 69 67 70 74 76 81 87 95 107 103 108 113 115 117 116 114 91 120 116 105 90 60
36 25 27 39 52 53 56 56 56 51 38 39 42 45 45 47 49 50 55 59 59 60 63 65 68 68 70 73 79 93 100 101 111 111 116 116 118 102 113 107 108 104 90
49 50 45 36 50 47 50 49 53 56 51 43 34 29 27 28 34 41 47 52 52 56 61 65 66 68 68 66 72 82 96 103 105 110 115 114 106 111 106 106 102 94 90
56 59 61 49 49 53 53 53 54 55 53 49 41 35 30 35 44 45 49 55 59 61 65 68 71 71 69 68 71 77 86 95 97 104 109 113 94 105 113 104 98 95 92
43 42 43 50 55 58 59 56 49 44 44 49 53 52 53 54 54 57 58 64 68 70 70 74 77 75 72 72 71 73 77 81 84 98 101 101 95 104 101 96 97 90 82
28 38 45 50 55 57 59 57 57 54 49 49 53 58 59 59 61 64 68 72 74 78 78 78 76 75 74 72 71 72 74 75 76 87 94 96 101 101 101 93 95 86 76
33 31 33 37 39 40 43 50 52 50 53 52 54 58 61 66 69 70 72 75 78 79 76 76 77 76 75 74 74 72 73 72 77 84 83 93 97 91 93 93 92 79 78
33 38 40 42 44 47 49 51 57 63 59 59 63 64 65 66 68 72 74 74 71 72 75 78 75 74 72 69 68 71 75 75 77 83 84 87 89 88 86 86 76 75 79
34 35 38 40 42 45 50 54 59 66 69 66 64 63 64 67 66 67 69 71 69 68 67 67 67 70 67 64 66 68 72 74 76 79 81 83 84 84 79 73 66 66 70
44 45 46 48 47 47 48 49 52 57 62 65 63 60 59 58 57 61 66 68 68 68 66 66 63 63 62 58 60 61 67 70 75 75 74 76 78 79 76 68 66 66 63
50 50 51 53 56 58 61 61 60 58 57 60 64 65 63 63 60 60 62 66 69 69 67 65 59 59 58 54 55 57 65 71 73 72 72 69 71 68 66 64 72 70 70
53 56 54 56 58 59 64 68 67 67 67 62 60 60 66 71 70 67 66 62 63 65 65 64 59 57 57 52 54 55 64 67 66 66 65 66 61 55 54 64 75 74 78
60 58 52 52 55 59 64 66 68 70 73 74 74 72 66 62 68 70 69 70 64 59 57 59 56 55 53 49 50 51 61 58 58 60 60 59 51 42 53 69 70 69 68
69 65 62 62 62 63 67 68 69 69 70 69 71 69 68 73 71 67 64 61 61 60 54 49 46 41 40 40 43 48 47 42 47 48 46 44 41 47 55 61 62 66 58
74 69 65 66 64 66 68 72 70 68 66 66 62 61 59 59 62 63 56 54 51 48 45 39 33 34 34 35 34 32 37 39 27 27 26 25 32 43 50 56 57 71 55
80 73 70 68 70 68 67 68 68 68 67 63 59 58 60 60 56 52 48 46 41 36 30 26 24 26 26 24 20 23 37 33 18 13 14 17 29 44 53 54 54 55 28
76 74 76 78 78 75 70 66 63 60 60 57 57 61 59 54 50 47 42 38 33 30 23 19 19 17 15 13 15 25 31 27 14 12 15 25 40 51 54 55 51 34 35
79 81 79 79 78 75 73 66 62 56 56 61 63 59 54 50 49 43 34 26 19 15 11 9 8 8 11 15 19 20 24 16 12 15 23 32 50 56 60 65 59 57 46
Wind_Direction_500mb
264 262 257 253 250 246 242 242 238 237 237 236 234 235 236 236 237 240 241 242 242 243 241 242 241 239 245 248 242 234 231 225 224 223 220 225 230 233 233 234 234 234 235
268 264 257 255 251 251 248 244 244 242 241 240 242 240 241 242 243 245 244 242 240 243 246 245 247 245 246 244 237 236 236 228 225 221 222 219 228 233 235 234 234 234 236
280 277 268 262 258 255 252 248 248 248 247 244 241 241 242 243 245 245 244 240 241 244 243 249 248 249 250 248 247 244 239 233 234 227 226 211 223 236 234 240 236 235 235
283 291 294 282 268 261 261 258 252 250 250 247 246 248 249 250 252 249 247 246 240 239 241 245 247 250 251 250 249 251 248 244 240 232 228 232 244 222 231 236 238 238 235
57 44 360 352 314 273 267 265 257 252 250 250 251 252 253 257 257 256 254 250 246 244 246 247 247 249 252 254 255 249 250 247 242 249 245 238 234 239 240 242 237 236 235
21 360 336 326 322 305 288 275 268 256 252 251 253 256 259 259 260 259 258 257 255 250 248 248 249 250 251 254 255 256 252 250 252 250 244 253 239 251 241 243 242 240 238
35 24 18 2 330 314 305 290 274 266 259 257 257 259 262 263 265 266 264 262 260 256 254 252 251 252 253 254 255 257 256 254 249 259 254 253 248 256 247 251 243 244 240
35 29 23 21 14 354 337 319 299 286 272 265 263 264 264 265 267 267 266 266 265 263 264 262 260 259 259 258 256 254 256 258 254 257 261 249 252 263 255 261 242 232 240
21 33 28 34 30 27 23 21 360 320 292 276 267 265 265 264 266 269 270 270 268 268 268 266 263 260 259 259 256 254 254 254 257 257 262 259 248 263 267 258 248 247 232
9 20 22 19 7 3 2 3 7 0 335 300 280 270 267 266 268 271 270 269 272 271 270 268 265 263 262 260 259 256 253 253 255 255 254 258 252 257 265 259 255 253 249
13 8 359 347 351 352 354 354 354 351 346 340 310 291 281 279 282 281 280 275 274 273 273 272 271 268 266 265 263 261 257 257 255 255 256 255 255 263 263 261 258 253 245
344 340 338 341 340 340 340 338 337 335 332 325 318 297 290 301 301 293 289 282 278 275 274 273 272 269 267 266 264 263 262 260 255 253 253 255 255 256 261 258 255 249 239
347 346 333 321 316 316 323 329 332 326 320 315 311 301 290 291 292 289 286 285 280 273 269 269 269 270 270 271 270 268 266 263 257 258 257 256 261 262 253 253 251 244 238
346 325 318 314 310 307 308 311 311 312 309 301 297 291 289 290 290 287 283 283 283 278 274 272 272 273 272 268 267 266 264 263 258 256 258 259 260 260 257 254 249 243 230
348 347 338 331 327 321 310 309 313 312 308 304 297 293 290 289 286 284 281 281 280 278 277 275 274 272 269 267 268 266 265 263 260 257 257 260 262 257 256 253 251 236 228
360 353 349 344 338 330 324 316 310 312 310 302 299 296 290 284 283 283 284 283 282 279 277 275 274 273 269 268 268 267 265 260 257 258 260 263 261 257 259 254 244 241 237
357 348 343 342 340 336 332 326 315 308 307 306 302 300 299 295 292 288 286 286 286 283 279 275 274 273 272 270 269 268 265 261 260 260 260 261 260 255 250 243 236 234 219
340 333 332 326 322 321 320 318 321 319 316 311 307 305 302 300 299 297 294 289 285 283 282 279 275 272 269 266 264 264 262 258 257 259 263 265 262 256 248 238 232 208 200
335 330 327 321 315 314 313 313 313 311 315 318 314 310 307 304 302 300 297 292 288 284 281 277 272 269 268 266 263 260 258 261 259 261 260 259 260 257 245 232 212 199 192
335 333 326 323 319 317 313 308 310 310 312 306 308 314 316 310 306 305 301 298 293 289 282 275 270 266 265 262 263 259 258 259 259 259 261 260 256 246 238 224 204 194 200
334 331 326 324 322 322 316 315 311 309 304 305 304 305 302 305 309 310 308 304 298 290 284 277 271 268 266 263 258 254 261 263 260 260 261 257 249 221 219 211 202 197 205
326 325 321 319 320 322 320 318 313 310 306 303 302 300 301 300 296 296 296 295 293 292 286 283 282 275 268 262 257 255 255 256 257 262 261 259 245 218 215 205 197 209 210
320 319 314 312 312 317 317 315 316 310 306 304 301 299 299 298 300 296 292 290 284 281 279 281 282 283 271 267 260 251 232 243 251 252 258 255 230 210 200 208 209 212 209
314 315 311 309 308 313 312 311 312 310 308 305 305 304 304 303 299 293 288 286 286 282 280 279 277 273 272 268 251 210 222 239 256 235 210 205 200 196 199 209 219 209 221
306 305 305 304 306 308 308 306 305 304 303 305 307 309 303 300 296 289 284 279 276 274 268 263 260 258 254 246 221 206 215 232 243 217 189 185 186 191 199 209 200 223 240
300 300 300 299 300 302 303 303 303 298 299 301 302 302 298 292 287 280 272 267 257 250 247 231 215 211 207 184 177 183 201 211 200 191 184 180 188 192 203 211 224 235 239
Wind_Speed_850mb
57 51 49 53 59 62 64 66 73 75 80 85 85 84 86 85 84 81 79 76 73 72 70 74 75 74 73 71 68 66 64 62 62 55 52 52 52 55 59 62 64 64 61
62 57 54 53 55 61 68 70 70 74 81 86 88 91 86 90 88 87 86 83 79 79 74 76 76 81 76 80 83 77 74 76 73 69 56 40 57 66 66 70 71 69 67
37 33 44 51 56 62 63 72 74 73 73 82 89 94 97 96 92 92 91 87 84 81 79 75 78 81 84 81 88 90 88 89 82 81 62 27 35 54 72 78 78 78 77
27 29 25 29 38 50 55 65 77 80 76 77 86 91 94 98 95 93 94 94 88 85 85 82 83 84 83 86 85 97 94 98 96 90 92 83 57 39 40 72 81 84 81
24 17 15 18 19 29 37 46 67 82 83 81 81 84 90 94 94 91 91 92 95 96 96 93 92 89 88 91 92 89 106 99 111 99 95 100 80 71 62 55 70 85 92
16 16 18 21 18 19 26 37 45 69 82 82 81 82 81 86 89 90 88 89 88 92 97 97 96 96 95 97 98 101 99 114 107 114 115 91 101 99 95 85 72 77 86
34 34 34 27 22 21 24 26 33 45 58 68 75 77 77 80 83 84 84 85 84 86 87 90 99 104 105 101 102 104 110 100 122 115 120 99 113 106 99 101 82 68 86
43 45 46 45 37 28 24 21 27 33 41 50 58 64 70 73 75 76 76 77 78 77 77 78 80 85 93 101 104 104 109 109 114 110 121 110 117 93 117 107 102 78 64
36 38 42 44 55 56 55 57 41 32 35 39 46 54 57 60 63 63 63 66 69 69 67 70 74 76 81 87 95 107 103 108 113 115 117 116 114 91 120 116 105 90 60
36 25 27 39 52 53 56 56 56 51 38 39 42 45 45 47 49 50 55 59 59 60 63 65 68 68 70 73 79 93 100 101 111 111 116 116 118 102 113 107 108 104 90
49 50 45 36 50 47 50 49 53 56 51 43 34 29 27 28 34 41 47 52 52 56 61 65 66 68 68 66 72 82 96 103 105 110 115 114 106 111 106 106 102 94 90
56 59 61 49 49 53 53 53 54 55 53 49 41 35 30 35 44 45 49 55 59 61 65 68 71 71 69 68 71 77 86 95 97 104 109 113 94 105 113 104 98 95 92
43 42 43 50 55 58 59 56 49 44 44 49 53 52 53 54 54 57 58 64 68 70 70 74 77 75 72 72 71 73 77 81 84 98 101 101 95 104 101 96 97 90 82
28 38 45 50 55 57 59 57 57 54 49 49 53 58 59 59 61 64 68 72 74 78 78 78 76 75 74 72 71 72 74 75 76 87 94 96 101 101 101 93 95 86 76
33 31 33 37 39 40 43 50 52 50 53 52 54 58 61 66 69 70 72 75 78 79 76 76 77 76 75 74 74 72 73 72 77 84 83 93 97 91 93 93 92 79 78
33 38 40 42 44 47 49 51 57 63 59 59 63 64 65 66 68 72 74 74 71 72 75 78 75 74 72 69 68 71 75 75 77 83 84 87 89 88 86 86 76 75 79
34 35 38 40 42 45 50 54 59 66 69 66 64 63 64 67 66 67 69 71 69 68 67 67 67 70 67 64 66 68 72 74 76 79 81 83 84 84 79 73 66 66 70
44 45 46 48 47 47 48 49 52 57 62 65 63 60 59 58 57 61 66 68 68 68 66 66 63 63 62 58 60 61 67 70 75 75 74 76 78 79 76 68 66 66 63
50 50 51 53 56 58 61 61 60 58 57 60 64 65 63 63 60 60 62 66 69 69 67 65 59 59 58 54 55 57 65 71 73 72 72 69 71 68 66 64 72 70 70
53 56 54 56 58 59 64 68 67 67 67 62 60 60 66 71 70 67 66 62 63 65 65 64 59 57 57 52 54 55 64 67 66 66 65 66 61 55 54 64 75 74 78
60 58 52 52 55 59 64 66 68 70 73 74 74 72 66 62 68 70 69 70 64 59 57 59 56 55 53 49 50 51 61 58 58 60 60 59 51 42 53 69 70 69 68
69 65 62 62 62 63 67 68 69 69 70 69 71 69 68 73 71 67 64 61 61 60 54 49 46 41 40 40 43 48 47 42 47 48 46 44 41 47 55 61 62 66 58
74 69 65 66 64 66 68 72 70 68 66 66 62 61 59 59 62 63 56 54 51 48 45 39 33 34 34 35 34 32 37 39 27 27 26 25 32 43 50 56 57 71 55
80 73 70 68 70 68 67 68 68 68 67 63 59 58 60 60 56 52 48 46 41 36 30 26 24 26 26 24 20 23 37 33 18 13 14 17 29 44 53 54 54 55 28
76 74 76 78 78 75 70 66 63 60 60 57 57 61 59 54 50 47 42 38 33 30 23 19 19 17 15 13 15 25 31 27 14 12 15 25 40 51 54 55 51 34 35
79 81 79 79 78 75 73 66 62 56 56 61 63 59 54 50 49 43 34 26 19 15 11 9 8 8 11 15 19 20 24 16 12 15 23 32 50 56 60 65 59 57 46
Wind_Direction_850mb
264 262 257 253 250 246 242 242 238 237 237 236 234 235 236 236 237 240 241 242 242 243 241 242 241 239 245 248 242 234 231 225 224 223 220 225 230 233 233 234 234 234 235
268 264 257 255 251 251 248 244 244 242 241 240 242 240 241 242 243 245 244 242 240 243 246 245 247 245 246 244 237 236 236 228 225 221 222 219 228 233 235 234 234 234 236
280 277 268 262 258 255 252 248 248 248 247 244 241 241 242 243 245 245 244 240 241 244 243 249 248 249 250 248 247 244 239 233 234 227 226 211 223 236 234 240 236 235 235
283 291 294 282 268 261 261 258 252 250 250 247 246 248 249 250 252 249 247 246 240 239 241 245 247 250 251 250 249 251 248 244 240 232 228 232 244 222 231 236 238 238 235
57 44 360 352 314 273 267 265 257 252 250 250 251 252 253 257 257 256 254 250 246 244 246 247 247 249 252 254 255 249 250 247 242 249 245 238 234 239 240 242 237 236 235
21 360 336 326 322 305 288 275 268 256 252 251 253 256 259 259 260 259 258 257 255 250 248 248 249 250 251 254 255 256 252 250 252 250 244 253 239 251 241 243 242 240 238
35 24 18 2 330 314 305 290 274 266 259 257 257 259 262 263 265 266 264 262 260 256 254 252 251 252 253 254 255 257 256 254 249 259 254 253 248 256 247 251 243 244 240
35 29 23 21 14 354 337 319 299 286 272 265 263 264 264 265 267 267 266 266 265 263 264 262 260 259 259 258 256 254 256 258 254 257 261 249 252 263 255 261 242 232 240
21 33 28 34 30 27 23 21 360 320 292 276 267 265 265 264 266 269 270 270 268 268 268 266 263 260 259 259 256 254 254 254 257 257 262 259 248 263 267 258 248 247 232
9 20 22 19 7 3 2 3 7 0 335 300 280 270 267 266 268 271 270 269 272 271 270 268 265 263 262 260 259 256 253 253 255 255 254 258 252 257 265 259 255 253 249
13 8 359 347 351 352 354 354 354 351 346 340 310 291 281 279 282 281 280 275 274 273 273 272 271 268 266 265 263 261 257 257 255 255 256 255 255 263 263 261 258 253 245
344 340 338 341 340 340 340 338 337 335 332 325 318 297 290 301 301 293 289 282 278 275 274 273 272 269 267 266 264 263 262 260 255 253 253 255 255 256 261 258 255 249 239
347 346 333 321 316 316 323 329 332 326 320 315 311 301 290 291 292 289 286 285 280 273 269 269 269 270 270 271 270 268 266 263 257 258 257 256 261 262 253 253 251 244 238
346 325 318 314 310 307 308 311 311 312 309 301 297 291 289 290 290 287 283 283 283 278 274 272 272 273 272 268 267 266 264 263 258 256 258 259 260 260 257 254 249 243 230
348 347 338 331 327 321 310 309 313 312 308 304 297 293 290 289 286 284 281 281 280 278 277 275 274 272 269 267 268 266 265 263 260 257 257 260 262 257 256 253 251 236 228
360 353 349 344 338 330 324 316 310 312 310 302 299 296 290 284 283 283 284 283 282 279 277 275 274 273 269 268 268 267 265 260 257 258 260 263 261 257 259 254 244 241 237
357 348 343 342 340 336 332 326 315 308 307 306 302 300 299 295 292 288 286 286 286 283 279 275 274 273 272 270 269 268 265 261 260 260 260 261 260 255 250 243 236 234 219
340 333 332 326 322 321 320 318 321 319 316 311 307 305 302 300 299 297 294 289 285 283 282 279 275 272 269 266 264 264 262 258 257 259 263 265 262 256 248 238 232 208 200
335 330 327 321 315 314 313 313 313 311 315 318 314 310 307 304 302 300 297 292 288 284 281 277 272 269 268 266 263 260 258 261 259 261 260 259 260 257 245 232 212 199 192
335 333 326 323 319 317 313 308 310 310 312 306 308 314 316 310 306 305 301 298 293 289 282 275 270 266 265 262 263 259 258 259 259 259 261 260 256 246 238 224 204 194 200
334 331 326 324 322 322 316 315 311 309 304 305 304 305 302 305 309 310 308 304 298 290 284 277 271 268 266 263 258 254 261 263 260 260 261 257 249 221 219 211 202 197 205
326 325 321 319 320 322 320 318 313 310 306 303 302 300 301 300 296 296 296 295 293 292 286 283 282 275 268 262 257 255 255 256 257 262 261 259 245 218 215 205 197 209 210
320 319 314 312 312 317 317 315 316 310 306 304 301 299 299 298 300 296 292 290 284 281 279 281 282 283 271 267 260 251 232 243 251 252 258 255 230 210 200 208 209 212 209
314 315 311 309 308 313 312 311 312 310 308 305 305 304 304 303 299 293 288 286 286 282 280 279 277 273 272 268 251 210 222 239 256 235 210 205 200 196 199 209 219 209 221
306 305 305 304 306 308 308 306 305 304 303 305 307 309 303 300 296 289 284 279 276 274 268 263 260 258 254 246 221 206 215 232 243 217 189 185 186 191 199 209 200 223 240
300 300 300 299 300 302 303 303 303 298 299 301 302 302 298 292 287 280 272 267 257 250 247 231 215 211 207 184 177 183 201 211 200 191 184 180 188 192 203 211 224 235 239